sat.trackr.live / text

‹ back to catalog

SATORO-T3

NORAD 64589 · 2025-135BP

PAYLOAD ACTIVE UNKNOWN

§ Identity

Operator
Country
ROC
Launch date
2025-06-23
Launch site
AFWTR
Launch vehicle
Mass (kg)
RCS (m²)

External: N2YO · Heavens-Above · Gunter

§ Orbital elements

Epoch: 2026-05-25T03:03:33.941088Z

Period
96.37 min
Inclination
97.7692°
Eccentricity
0.0006091
Mean motion
14.94224388 rev/d
Perigee alt
580.5 km
Apogee alt
589.0 km
Semi-major
6,962.9 km
B*
1.7916e-4
RAAN
259.8939°
Arg perigee
61.4872°
Mean anomaly
298.6960°
Rev number
5,046

§ Raw data

SATORO-T31 64589U 25135BP  26145.12747617  .00001864  00000+0  17916-3 0  99962 64589  97.7692 259.8939 0006091  61.4872 298.6960 14.94224388 50463

JSON: /api/v1/satellites/64589 · /tle

For live sub-satellite position, see the globe view (requires WebGL).

§ Visibility from observer

Set your observer location to see the next 7 days of passes ≥ 10°. The values pass through the URL so the page stays shareable.

No JS? Fill the form by hand. The geolocation button needs JavaScript.

§ Radio — SatNOGS DB

ModeDescriptionDownlinkUplink
FM Mode S - Transmitter 2.280 GHz
BPSK Mode U - Transmitter 401.970 MHz
BPSK S-band telemetry 2.270 GHz

3 transmitters · refreshed weekly from db.satnogs.org